Weather History for Dallas/Ft Worth, TX

Change the Weather History Date:

Wednesday, August 21, 2013

  Actual Average Record
Temperature  
Mean Temperature 84 °F 85 °F  
Max Temperature 95 °F 96 °F 105 °F (1948)
Min Temperature 73 °F 75 °F 62 °F (1940)
Degree Days  
Heating Degree Days 0 0  
Month to date heating degree days 0 0  
Since 1 June heating degree days 0 0  
Since 1 July heating degree days 0 0  
Cooling Degree Days 19 20  
Month to date cooling degree days 461 440  
Year to date cooling degree days 1997 1984  
Since 1 June cooling degree days 1608 1562  
Growing Degree Days 34 (Base 50)    
Moisture  
Dew Point 63 °F    
Average Humidity 53    
Maximum Humidity 73    
Minimum Humidity 33    
Precipitation  
Precipitation 0.00 in 0.07 in 2.25 in (1919)
Month to date precipitation 1.18 1.17  
Year to date precipitation 18.53 23.37  
Sea Level Pressure  
Sea Level Pressure 30.01 in    
Wind  
Wind Speed 7 mph (SSE)    
Max Wind Speed 12 mph    
Max Gust Speed 16 mph    
Visibility 10 miles    
Events      
T = Trace of Precipitation, MM = Missing Value Source: NWS Daily Summary

Daily Weather History Graph

Daily Weather History Graph

Search for Another Location

Airport:

Trip Planner

Search our weather history database for the weather conditions in past years. The results will help you decide how hot, cold, wet, or windy it might be!

Date:

Astronomy

Aug. 21, 2013 Rise Set
Actual Time 6:55 AM CDT 8:06 PM CDT
Civil Twilight 6:29 AM CDT 8:31 PM CDT
Nautical Twilight 5:59 AM CDT 9:02 PM CDT
Astronomical Twilight 5:27 AM CDT 9:33 PM CDT
Moon 8:22 PM CDT 7:31 AM CDT
Length of Visible Light 14h 01m
Length of Day
13h 10m
Waxing Gibbous, 99% of the Moon is Illuminated
Aug 21
Waxing Gibbous
Aug 28
Last Quarter
Sep 5
New
Sep 12
First Quarter
Sep 19
Full

Hourly Weather History & Observations

Time (CDT) Temp. Heat Index Dew Point Humidity Pressure Visibility Wind Dir Wind Speed Gust Speed Precip Events Conditions
12:53 AM 79.0 °F - 59.0 °F 50% 29.98 in 10.0 mi SE 5.8 mph - N/A   Mostly Cloudy
1:53 AM 80.1 °F 80.9 °F 60.1 °F 50% 29.99 in 10.0 mi South 8.1 mph - N/A   Mostly Cloudy
2:53 AM 78.1 °F - 62.1 °F 58% 29.99 in 10.0 mi South 5.8 mph - N/A   Mostly Cloudy
3:53 AM 79.0 °F - 64.0 °F 60% 29.99 in 10.0 mi SSW 6.9 mph - N/A   Mostly Cloudy
4:53 AM 75.9 °F - 64.9 °F 69% 30.00 in 10.0 mi SSE 5.8 mph - N/A   Mostly Cloudy
5:53 AM 73.9 °F - 64.9 °F 73% 30.01 in 10.0 mi ESE 5.8 mph - N/A   Mostly Cloudy
6:53 AM 73.9 °F - 64.9 °F 73% 30.03 in 10.0 mi Calm Calm - N/A   Mostly Cloudy
7:53 AM 77.0 °F - 66.9 °F 71% 30.04 in 10.0 mi SE 5.8 mph - N/A   Mostly Cloudy
8:53 AM 80.1 °F 82.3 °F 66.9 °F 64% 30.05 in 10.0 mi SSW 9.2 mph - N/A   Scattered Clouds
9:53 AM 82.9 °F 85.4 °F 66.9 °F 58% 30.06 in 10.0 mi South 8.1 mph - N/A   Scattered Clouds
10:53 AM 86.0 °F 88.8 °F 66.9 °F 53% 30.07 in 10.0 mi South 4.6 mph - N/A   Scattered Clouds
11:53 AM 88.0 °F 89.6 °F 64.9 °F 46% 30.06 in 10.0 mi South 6.9 mph - N/A   Mostly Cloudy
12:53 PM 91.0 °F 91.9 °F 63.0 °F 39% 30.05 in 10.0 mi SSW 9.2 mph - N/A   Mostly Cloudy
1:53 PM 93.9 °F 94.8 °F 62.1 °F 35% 30.03 in 10.0 mi South 11.5 mph 16.1 mph N/A   Mostly Cloudy
2:53 PM 95.0 °F 96.0 °F 63.0 °F 34% 30.01 in 10.0 mi ESE 9.2 mph - N/A   Mostly Cloudy
3:53 PM 95.0 °F 95.6 °F 62.1 °F 33% 29.99 in 10.0 mi South 9.2 mph - N/A   Mostly Cloudy
4:53 PM 93.0 °F 93.8 °F 62.1 °F 36% 29.97 in 10.0 mi South 6.9 mph - N/A   Mostly Cloudy
5:53 PM 93.0 °F 93.0 °F 61.0 °F 34% 29.96 in 10.0 mi SSE 8.1 mph - N/A   Mostly Cloudy
6:53 PM 91.9 °F 92.5 °F 62.1 °F 37% 29.96 in 10.0 mi SSE 11.5 mph - N/A   Mostly Cloudy
7:53 PM 90.0 °F 90.0 °F 61.0 °F 38% 29.96 in 10.0 mi SE 8.1 mph - N/A   Mostly Cloudy
8:53 PM 86.0 °F 86.3 °F 62.1 °F 44% 29.97 in 10.0 mi ESE 6.9 mph - N/A   Mostly Cloudy
9:53 PM 84.0 °F 84.9 °F 63.0 °F 49% 30.00 in 10.0 mi SE 6.9 mph - N/A   Partly Cloudy
10:53 PM 84.0 °F 85.4 °F 64.0 °F 51% 30.01 in 10.0 mi SSE 6.9 mph - N/A   Partly Cloudy
11:53 PM 82.9 °F 84.4 °F 64.0 °F 53% 30.01 in - North - - N/A   Partly Cloudy